Simultaneous Nadir Overpasses (SNOs) Predictions

Prediction of SNOs between AQUA and NOAA-19 Satellite Orbit:

Table of predicted SNOs for the next 14.0 days since TLE Epoch: 6/26/2021
Index Date (AQUA) Time (AQUA) Lat,Lon (AQUA) SZA (AQUA ) Date (NOAA-19) Time (NOAA-19) Lat,Lon (NOAA-19) SZA (NOAA-19 ) Distance(km) Time Diff (sec)
1 06/27/2021 09:09:11 -78.75,-159.61 123.62 06/27/2021 09:08:18 -78.74,-159.59 123.61 1.18 53
2 06/27/2021 09:58:39 78.79, 7.81 56.44 06/27/2021 09:59:18 78.75, 7.76 56.40 4.19 39
3 06/29/2021 15:32:21 -78.75, 104.60 123.50 06/29/2021 15:32:27 -78.75, 104.56 123.49 0.82 6
4 07/01/2021 21:06:05 78.76,-158.87 56.67 07/01/2021 21:05:36 78.72,-158.84 56.65 3.64 29
5 07/01/2021 21:55:31 -78.75, 8.78 123.33 07/01/2021 21:56:36 -78.76, 8.70 123.34 2.14 65
6 07/04/2021 02:39:47 -78.72, -62.12 123.19 07/04/2021 02:38:46 -78.73, -62.02 123.17 2.28 61
7 07/04/2021 03:29:15 78.77, 105.29 56.87 07/04/2021 03:29:44 78.75, 105.36 56.84 2.73 29
8 07/06/2021 09:02:57 -78.73,-157.97 122.95 07/06/2021 09:02:55 -78.73,-157.93 122.95 0.92 2
9 07/08/2021 14:36:40 78.71, -61.28 57.28 07/08/2021 14:36:02 78.70, -61.36 57.29 2.18 38



Historial Predications of SNOs between AQUA and NOAA-19
